Simultaneous Nadir Overpasses (SNOs) Predictions

Prediction of SNOs between GOES-17 and NOAA-20 Satellite Orbit:

Table of predicted SNOs for the next 14.0 days since TLE Epoch: 1/29/2022
Index Date Time (GOES-17) GOES-17 Lat,Lon NOAA-20 Lat,Lon Distance(km) Time Diff (sec)
1 01/29/2022 22:23:30 0.03,-137.22 0.65,-134.43 317.99 80
2 01/31/2022 10:42:39 -0.03,-137.21 0.55,-139.70 284.35 80
3 02/01/2022 10:26:37 -0.03,-137.20 -0.51,-135.18 231.12 80
4 02/02/2022 22:45:55 0.03,-137.20 -0.69,-140.49 374.17 80
5 02/03/2022 22:29:52 0.03,-137.20 0.31,-135.96 141.36 80
6 02/05/2022 10:51:41 -0.03,-137.19 0.89,-141.23 461.05 80
7 02/06/2022 10:30:18 -0.03,-137.18 -0.12,-136.70 54.22 80
8 02/08/2022 22:33:32 0.02,-137.16 -0.08,-137.48 36.84 80
9 02/09/2022 22:17:29 0.02,-137.15 0.93,-132.95 478.11 80
10 02/11/2022 10:39:18 0.01,-137.12 0.27,-138.22 125.21 80
